Vertical_Velocity
-3 -2 -1 0 1 0 -0 0 -3 -3 4 4 2 2 -4 -6 -6 -3 -3 -1 -2 -2 -0 1 1 0 -1 -1 -1 -1 0 1 1 1 1 1 1 -1
-3 -1 -1 -0 1 -1 -1 0 -1 -2 -9 5 3 1 2 -1 -1 -3 -6 -4 -3 -2 -2 -1 -0 0 0 -0 1 1 -0 0 1 -0 -0 -1 -1 1
-0 2 1 -1 2 -0 -0 0 -1 -2 -4 7 -1 3 3 3 1 -1 -1 -1 1 -1 -3 -2 1 -0 -0 0 -0 0 1 1 -0 0 1 -0 -1 -2
-1 -1 1 -1 0 -1 -2 -1 0 -1 -3 -2 1 -2 -3 -3 4 5 1 -0 0 2 1 -2 -2 -2 -1 -0 -1 -2 2 1 1 -0 -0 2 2 0
0 1 1 -1 -0 -1 -0 -1 -1 -2 -1 -3 1 0 -1 -2 -2 -2 1 2 -1 -2 -1 -0 0 -1 -0 -1 0 1 2 0 0 -1 -1 -1 -2 -0
1 -1 -1 -1 -1 0 1 1 1 2 2 2 2 -0 -1 -0 -2 -2 1 -1 2 -0 -0 -2 -1 0 -0 -1 -2 -2 -1 2 1 -0 0 0 -1 -1
-2 -1 1 -0 0 -1 -2 0 -1 -2 -2 -0 1 -1 0 -0 -2 -2 -3 0 2 -2 4 -1 -0 -2 -1 -1 0 -2 -1 1 -1 -0 -0 1 1 0
2 2 -3 -1 -0 -1 1 -1 -2 -2 1 -2 0 1 3 0 1 -0 0 -2 -1 -1 -1 1 -1 4 -2 -1 -0 -1 -1 -1 1 2 -1 -2 -2 -1
3 0 1 2 1 -2 -3 -0 0 2 2 -3 -0 2 -1 -2 -0 2 1 -0 2 -1 1 5 2 -1 -3 -1 -1 -1 -1 -1 -2 -1 1 -1 -1 -2
-2 2 1 6 3 0 -1 -1 -1 -2 -0 -1 -3 4 -1 -1 -3 -2 1 -0 2 1 -4 -1 4 3 2 1 0 -1 -1 -2 -1 -1 0 1 -1 -0
1 -0 -4 -4 2 -1 1 -1 3 1 1 -3 -4 -1 -1 2 0 -4 0 -5 -1 4 3 -6 -1 1 -0 0 1 -1 0 -1 -2 -1 -1 -3 -2 0
2 1 3 -2 -3 3 -3 -0 -1 7 -4 -0 4 -2 -2 0 1 -3 2 -2 -2 -3 7 -8 3 -3 -2 2 0 -1 -1 -2 -2 -3 -4 -3 -1 -2
-1 0 1 -1 3 3 -0 1 -0 -1 2 -3 -1 -1 -1 -1 0 2 1 -3 -1 -2 -7 -6 4 2 2 -5 -0 -5 -4 -2 0 -1 -2 -1 -2 -2
-3 -1 -1 -1 -3 -3 -2 -0 0 4 -1 -4 -4 1 1 1 4 -0 -3 -0 -0 1 -2 -2 -4 -3 -2 -3 -1 -2 3 1 -5 -2 -1 -0 -0 -0
-3 -3 -1 1 3 -1 1 -1 -2 -2 -5 -5 -2 -4 -3 3 1 -3 2 3 1 3 3 1 -1 -1 -2 -2 -3 -2 -10 4 -3 -3 -4 -2 1 -0
-2 -5 -6 -2 -2 -2 -3 2 -1 0 -2 -2 -6 -2 1 -8 4 -1 -1 3 -2 2 3 2 1 -2 -1 -2 -4 -1 -3 -8 2 -0 -2 -2 -3 -0
-1 1 1 4 1 -0 -3 -2 3 4 -0 -0 -5 -5 -4 -2 0 2 1 -2 -3 3 2 3 -0 -0 -1 -1 -5 -1 -1 -2 -2 0 -1 -1 -2 -2
-2 -2 -1 2 -2 -2 -2 -3 -1 -0 -3 -2 -1 -0 -3 0 -0 1 3 -1 -1 2 1 5 -0 -0 -0 0 -2 -1 -1 -1 -3 -2 -2 -2 1 -5
-2 -1 -1 -1 -3 -4 -1 1 -3 3 1 -3 2 -0 0 4 3 0 1 0 -1 1 1 5 -0 -2 -2 -1 0 -1 -0 -2 -3 -1 -3 -4 -2 -0
-3 -1 -0 2 1 -3 -4 -3 -3 1 1 -1 1 1 3 2 -1 -3 1 2 3 3 4 5 2 2 -2 1 -3 7 -3 -1 -3 -2 -2 -3 -3 0
4 -3 1 1 2 1 1 -1 -1 0 -0 -1 2 1 2 4 -1 7 1 2 7 4 -1 5 8 -4 1 0 -0 6 -2 -1 0 -2 1 -0 -2 0
0 -2 -1 -3 -2 -1 0 2 1 0 -1 1 1 1 2 3 1 -0 4 2 1 5 5 4 0 1 2 1 1 1 1 -3 -1 1 1 0 -1 -1
2 0 -4 -2 -0 3 2 1 0 -1 1 -1 1 4 1 0 3 1 3 4 3 3 4 0 -2 2 2 1 -0 -0 -0 -1 -1 -0 0 -0 -0 -1
Height
3028 3027 3025 3024 3023 3022 3021 3020 3018 3019 3020 3019 3018 3016 3015 3015 3014 3013 3012 3011 3010 3009 3008 3007 3006 3005 3005 3006 3006 3006 3006 3007 3009 3011 3012 3013 3014 3016
3024 3022 3020 3018 3016 3015 3014 3013 3012 3010 3010 3010 3009 3007 3006 3005 3004 3004 3003 3003 3002 3000 2999 2999 2998 2997 2997 2997 2998 2998 2999 3000 3001 3002 3003 3005 3007 3008
3017 3016 3014 3012 3010 3007 3006 3005 3004 3002 3002 3004 2999 2997 2997 2996 2995 2994 2994 2993 2992 2992 2990 2990 2989 2989 2989 2988 2989 2990 2991 2992 2993 2994 2995 2996 2998 2999
3010 3009 3007 3005 3003 3001 2999 2997 2995 2995 2995 2996 2993 2991 2988 2986 2986 2985 2983 2983 2983 2982 2981 2981 2981 2980 2980 2980 2980 2981 2982 2983 2983 2985 2987 2988 2989 2990
3004 3001 2999 2997 2996 2994 2992 2990 2987 2986 2985 2986 2987 2984 2982 2980 2978 2976 2976 2975 2974 2973 2972 2971 2971 2971 2971 2971 2970 2972 2973 2974 2975 2975 2977 2978 2979 2980
2998 2996 2993 2991 2989 2987 2985 2983 2980 2978 2976 2975 2977 2976 2974 2973 2971 2969 2969 2967 2966 2965 2965 2963 2962 2962 2961 2960 2961 2963 2964 2965 2966 2966 2967 2968 2969 2970
2992 2989 2987 2985 2983 2980 2979 2977 2974 2972 2969 2968 2967 2967 2967 2965 2963 2961 2960 2959 2959 2957 2957 2955 2955 2954 2953 2951 2951 2952 2953 2954 2956 2957 2957 2958 2959 2960
2986 2984 2981 2979 2975 2973 2971 2969 2967 2965 2963 2960 2959 2958 2959 2957 2956 2954 2952 2951 2950 2948 2948 2948 2946 2945 2944 2944 2942 2942 2943 2944 2945 2946 2947 2948 2948 2949
2979 2976 2974 2970 2968 2965 2962 2961 2959 2957 2955 2953 2951 2951 2948 2947 2946 2945 2944 2943 2942 2941 2940 2942 2939 2939 2937 2935 2935 2935 2934 2934 2935 2935 2936 2936 2938 2938
2969 2967 2965 2962 2959 2956 2953 2952 2950 2948 2946 2943 2941 2942 2940 2939 2937 2936 2935 2935 2935 2934 2931 2932 2931 2931 2930 2928 2927 2926 2927 2926 2926 2925 2924 2924 2925 2926
2959 2958 2956 2954 2951 2948 2945 2943 2941 2940 2937 2934 2931 2930 2930 2929 2927 2926 2926 2925 2925 2926 2925 2924 2924 2923 2922 2919 2918 2918 2916 2916 2915 2915 2915 2914 2913 2913
2949 2947 2945 2943 2941 2938 2934 2931 2930 2929 2925 2924 2922 2920 2919 2917 2917 2916 2915 2914 2914 2914 2916 2914 2915 2914 2914 2912 2911 2909 2908 2906 2904 2903 2902 2902 2901 2902
2936 2935 2932 2930 2928 2926 2923 2919 2917 2916 2914 2911 2910 2908 2907 2906 2904 2904 2903 2903 2903 2903 2902 2902 2904 2902 2902 2902 2903 2901 2898 2895 2893 2891 2890 2890 2889 2888
2922 2920 2918 2916 2914 2912 2910 2906 2903 2901 2899 2898 2896 2895 2893 2892 2890 2889 2887 2887 2889 2891 2890 2889 2891 2890 2889 2889 2891 2890 2888 2884 2881 2880 2879 2878 2878 2877
2906 2904 2901 2900 2899 2897 2895 2893 2889 2886 2883 2881 2880 2879 2878 2876 2874 2872 2872 2872 2873 2875 2877 2877 2877 2878 2877 2877 2876 2877 2874 2873 2870 2869 2868 2867 2866 2866
2891 2888 2887 2884 2882 2880 2878 2877 2873 2869 2866 2864 2862 2861 2860 2858 2858 2857 2856 2857 2857 2862 2864 2864 2864 2865 2866 2865 2864 2865 2863 2860 2860 2857 2857 2856 2855 2855
2875 2873 2872 2870 2867 2864 2862 2861 2858 2856 2852 2849 2845 2843 2842 2841 2840 2841 2841 2842 2843 2848 2850 2851 2852 2853 2854 2854 2853 2853 2851 2850 2848 2847 2846 2846 2844 2844
2861 2859 2858 2856 2853 2851 2848 2845 2843 2841 2837 2833 2830 2828 2826 2825 2826 2826 2827 2828 2830 2834 2837 2839 2839 2840 2842 2843 2843 2842 2840 2839 2838 2837 2836 2835 2835 2834
2849 2848 2845 2843 2840 2838 2835 2832 2828 2826 2824 2820 2816 2814 2813 2812 2812 2813 2815 2816 2818 2821 2824 2826 2827 2828 2829 2831 2831 2830 2830 2828 2828 2827 2826 2825 2826 2826
2838 2836 2833 2830 2827 2824 2821 2817 2814 2811 2808 2805 2802 2801 2801 2800 2801 2803 2803 2805 2807 2810 2812 2814 2816 2818 2819 2820 2820 2821 2819 2819 2819 2818 2818 2817 2817 2818
2827 2824 2821 2818 2814 2810 2806 2802 2799 2797 2795 2792 2791 2791 2791 2791 2792 2792 2793 2795 2797 2799 2801 2804 2806 2807 2809 2810 2810 2810 2810 2809 2810 2810 2810 2810 2809 2810
2813 2810 2807 2804 2800 2796 2792 2789 2787 2785 2784 2783 2782 2782 2782 2781 2783 2784 2784 2785 2787 2790 2793 2794 2797 2798 2799 2800 2801 2801 2801 2801 2801 2801 2802 2803 2803 2803
2801 2796 2793 2790 2787 2783 2780 2778 2777 2775 2774 2774 2773 2773 2773 2773 2774 2774 2775 2777 2780 2782 2785 2787 2788 2789 2790 2792 2793 2794 2794 2794 2793 2794 2794 2795 2796 2797